Location: Namasale
(1.5000°N, 32.6167°E)
Time: 17:40:19
(UTC+00:00)

Vanguard 1 Rocket - Pass Details

Date: 20 April 2021
Orbit: 651 x 4225 km, 34.3° (Epoch: 17 May)

Event Time Altitude Azimuth Distance (km) Brightness Sun altitude
Rises 22:27:54 0° 259° (WSW) 5,898 - -73.4°
Reaches altitude 10° 22:32:29 10° 245° (WSW) 5,416 - -72.7°
Maximum altitude 22:46:00 25° 196° (SSW) 5,426 - -70.4°
Exits shadow 22:59:07 16° 158° (SSE) 6,729 11.6 -67.9°
Drops below altitude 10° 23:04:48 10° 148° (SSE) 7,414 11.9 -66.8°
Sets 23:13:11 0° 135° (SE) 8,434 12.4 -65.0°
